Cosmos 1656 Rocket - Orbit

View from above orbital plane
View from above orbital plane
View from above satellite
View from above satellite

Ground track
Ground track

The orbit data is extracted from the following two-line orbital elements,

1 15772U 85042D   13137.98536197  .00000044  00000-0  42164-4 0  1018
2 15772 071.1097 241.5089 0036247 204.3883 206.0675 14.20907547449594
Epoch (UTC): 17 May 2013 23:38:55
Eccentricity: 0.0036247
inclination: 71.1097°
perigee height: 796 km
apogee height: 848 km
right ascension of ascending node: 241.5089°
argument of perigee: 204.3883°
revolutions per day: 14.20907547
mean anomaly at epoch: 206.0675°
orbit number at epoch: 44959

The dashed part of the orbit path shows where the satellite is in the earth's shadow,  

Developed and maintained by Chris Peat, Heavens-Above GmbH. Please read the updated FAQ before sending e-mail. Imprint. DLR